Home   Weather   Fairfield   Past weeks
Flag for USA

Past Weather in Fairfield, Maryland, USA — Yesterday and Last 2 Weeks

Now
53 °F

Cloudy.


Feels Like: 49 °F
Forecast: 54 / 29 °F
Wind: 13 mph from Southwest

Location: Baltimore-Washington International Airport

Current Time: Dec 6, 2019 at 1:23:47 pm

Latest Report: Dec 6, 2019 at 11:54 am


Visibility: 10 mi

Pressure: 30.05 "Hg

Humidity: 34%

Dew Point: 25 °F

Location of FairfieldLocation

Past Weather in Fairfield — Graph

°F

Fairfield Temperature Yesterday

Maximum temperature yesterday: 47 °F (at 12:54 pm)
Minimum temperature yesterday: 31 °F (at 11:54 pm)
Average temperature yesterday: 41 °F

High & Low Weather Summary for the Past Weeks

 TemperatureHumidityPressure
High63 °F (Nov 26, 1:54 pm)93% (Nov 23, 11:32 pm)30.28 "Hg (Nov 23, 11:32 pm)
Low29 °F (Nov 23, 5:54 am)29% (Nov 30, 5:54 pm)29.42 "Hg (Nov 24, 4:54 am)
Average43 °F65%29.85 "Hg
* Reported Nov 21 11:54 am — Dec 6 11:54 am, Fairfield. Weather by CustomWeather, © 2019

Note: Actual official high and low records may vary slightly from our data, if they occured in-between our weather recording intervals... More about our weather records

Fairfield Weather History for the Previous 24 Hours

Scroll right to see more
 ConditionsComfort  
Time TempWeatherWind HumidityBarometerVisibility
11:54 am
Fri, Dec 6
53 °FCloudy.13 mph34%30.05 "Hg10 mi
10:54 am49 °FBroken clouds.7 mph48%30.10 "Hg10 mi
9:54 am43 °FBroken clouds.7 mph58%30.14 "Hg10 mi
8:54 am39 °FPartly sunny.7 mph62%30.15 "Hg10 mi
7:54 am32 °FScattered clouds.No wind75%30.15 "Hg10 mi
6:54 am29 °FPassing clouds.No wind79%30.16 "Hg10 mi
5:54 am31 °FPassing clouds.No wind76%30.16 "Hg10 mi
4:54 am31 °FPassing clouds.No wind76%30.17 "Hg10 mi
3:54 am33 °FPassing clouds.No wind66%30.16 "Hg10 mi
2:54 am34 °FPartly cloudy.No wind70%30.17 "Hg10 mi
1:54 am34 °FOvercast.No wind70%30.17 "Hg10 mi
12:54 am32 °FMostly cloudy.No wind73%30.18 "Hg10 mi
11:54 pm
Thu, Dec 5
31 °FMostly cloudy.No wind76%30.17 "Hg10 mi
10:54 pm32 °FOvercast.No wind73%30.16 "Hg10 mi
9:54 pm32 °FPassing clouds.No wind66%30.15 "Hg10 mi
8:54 pm36 °FClear.No wind54%30.14 "Hg10 mi
7:54 pm38 °FClear.No wind51%30.12 "Hg10 mi
6:54 pm38 °FClear.5 mph53%30.09 "Hg10 mi
5:54 pm42 °FClear.12 mph43%30.07 "Hg10 mi
4:54 pm43 °FPassing clouds.12 mph42%30.03 "Hg10 mi
3:54 pm46 °FPassing clouds.15 mph37%30.01 "Hg10 mi
2:54 pm46 °FPassing clouds.21 mph38%29.97 "Hg10 mi
1:56 pm46 °FScattered clouds.17 mph38%29.95 "Hg10 mi
Weather by CustomWeather, © 2019

See weather overview

Advertising